Regional Weather Roundup
Issued by NWS

Home | Current Version | Previous Version | Text Only | Print | Product List | Glossary On
Versions: 1 2 3 4 5 6 7 8 9 10 11 12 13 14 15 16 17 18 19 20 21 22 23 24 25 26 27 28 29 30 31 32 33 34 35 36 37 38 39 40 41 42 43 44 45 46 47 48 49 50
390
ASHW40 PHFO 070543
RWRHI

WEATHER ROUNDUP FOR HAWAII
NATIONAL WEATHER SERVICE HONOLULU HI
700 PM HST SAT FEB 06 2016

THIS IS AN AUTOMATED REPORT THAT HAS NOT BEEN QUALITY CONTROLLED.

NOTE..."FAIR" INDICATES FEW OR NO CLOUDS BELOW 12,000 FEET WITH NO
SIGNIFICANT WEATHER AND/OR OBSTRUCTIONS TO VISIBILITY.

* - THESE SITES REPORT LIMITED FIELDS

HIZ001>004-070600-
KAUAI-NIIHAU-

CITY           SKY/WX    TMP DP  RH WIND       PRES   REMARKS
LIHUE APT      MOCLDY    71  64  78 N20G29    29.97R
PORT ALLEN*      N/A     75 N/A N/A NW14G21     N/A
POIPU*           N/A     77 N/A N/A E5          N/A
PRINCEVILLE*     N/A     70 N/A N/A NW10G20     N/A
KOKOLE POINT*  NOT AVBL
MOLOAA DAIRY*    N/A     70  66  88 NW5G18      N/A
WAIMEA HTS*      N/A     72  61  68 E2G9        N/A
PUU OPAE*        N/A     63  59  88 N18G31      N/A
PUU LUA*       NOT AVBL
MAKAHA RIDGE*    N/A    N/A N/A N/A N8G21       N/A
$$

HIZ005>011-070600-
OAHU-

CITY           SKY/WX    TMP DP  RH WIND       PRES   REMARKS
HONOLULU       MOCLDY    76  66  71 VRB6      29.95R
KALAELOA       CLOUDY    76  66  71 NW10      29.96R
KANEOHE MCB    CLOUDY    72  69  90 CALM      29.92S
WHEELER FIELD  FAIR      70  66  88 NW6       29.96R
BELLOWS*         N/A    N/A N/A N/A SW5         N/A
KAHUKU*          N/A    N/A N/A N/A VRB5G10     N/A
WHEELER*         N/A    N/A N/A N/A NW7G20      N/A
WAIANAE HARBOR   N/A    N/A N/A N/A NW13G22     N/A
DILLINGHAM*      N/A     72  66  83 MISG        N/A
KAHUKU TRN*      N/A     70  64  83 W5G14       N/A
KAWAILOA*        N/A     66  64  94 W3G14       N/A
KII*             N/A     73  66  78 W7          N/A
MAKUA RANGE*     N/A     75  64  69 N7G14       N/A
OAHU FOREST NW   N/A     63  63 100 CALM        N/A
SCHOFIELD BRK*   N/A     70  66  88 CALM        N/A
SCHOFIELD S*   NOT AVBL
WAIANAE VLY*     N/A     70  63  78 NW5         N/A
KUAOKALA*        N/A     70  66  88 N9G24       N/A
HONOULIUULI*   NOT AVBL
MOKUOLOE IS*   NOT AVBL
PALEHUA*         N/A     64  64 100 NE3G12      N/A
WAIAWA PHB*    NOT AVBL
$$

HIZ012>013-070600-
MOLOKAI-

CITY           SKY/WX    TMP DP  RH WIND       PRES   REMARKS
MOLOKAI AIRPT  LGT RAIN  70  66  88 NW8       29.98R
KALAUPAPA      NOT AVBL
MAKAPULAPAI*     N/A     70  66  88 NW12G23     N/A
MOLOKAI 1*     NOT AVBL
PUU ALII*        N/A     57  57 100 SW2G12      N/A
$$

HIZ016-070600-
KAHOOLAWE-

CITY           SKY/WX    TMP DP  RH WIND       PRES   REMARKS
KAHOOLAWE*       N/A     66 N/A N/A NW1         N/A
HAKIOAWA*        N/A     68  67  95 MISG      30.38R
HONOKANAIA*      N/A     74  69  85 W13G22    29.88R
KANELOA*         N/A     70  66  88 NW14G26   29.99R
KEALIALALO*      N/A     66  64  94 NW9G22    29.97R
LUA MAKIKA*    NOT AVBL
$$

HIZ014>015-070600-
LANAI-

CITY           SKY/WX    TMP DP  RH WIND       PRES   REMARKS
LANAI CITY     LGT RAIN  66  64  94 W14       30.01S
LANAI 1*       NOT AVBL
$$

HIZ017>028-070600-
MAUI-

CITY           SKY/WX    TMP DP  RH WIND       PRES   REMARKS
KAHULUI        LGT RAIN  76  67  73 E5        29.93R
KAPALUA-W MAUI NOT AVBL
HANA AIRPORT   CLOUDY    72  32  23 SW2       29.97R
HANA*            N/A     73 N/A N/A W3          N/A
HALEAKALA SUMM   N/A     41  41 100 NW26        N/A
MAALAEA BAY*     N/A     73 N/A N/A W5G10       N/A
HALEAKALA*     NOT AVBL
KAUPO GAP*       N/A     61  61 100 N5          N/A
KULA 1*          N/A     53  52  97 NW8G16      N/A
$$

HIZ023>026-070600-
BIG ISLAND OF HAWAII COAST AND LOWER SLOPES-

CITY           SKY/WX    TMP DP  RH WIND       PRES   REMARKS
KAILUA KONA    PTCLDY    77  68  73 S5        29.94R
HILO           MOCLDY    74  64  71 SE5       29.91R
HONOKAA*         N/A     68 N/A N/A VRB1        N/A
KAWAIHAE MWT*    N/A     77 N/A N/A W7          N/A
KAWAIHAE*        N/A     75 N/A N/A W9        29.93R
SOUTH POINT*     N/A     68 N/A N/A NW5         N/A
UPOLU AIRPORT*   N/A    N/A N/A N/A W17         N/A
KAMUELA*         N/A     64  64 100 W7        30.05S
HAKALAU*         N/A     53  53  99 E3          N/A
KALOKO-HONOKO*   N/A     75  66  73 CALM      29.93R
PALI 2*          N/A     61  61 100 NW5         N/A
KEALAKOMO*       N/A     77  63  61 SW6         N/A
KAUPULEHU*       N/A     72  64  78 SW6         N/A
KAPAPALA*        N/A     64  62  94 NW3         N/A
LOWER KAHUKU*    N/A     63 -40   1 CALM        N/A
PUHE CS*         N/A     77  68  73 W5G12       N/A
PUHO CS*         N/A     76  65  70 W2          N/A
PTA KEAMUKU*     N/A     59  55  88 CALM        N/A
WAIKOLOA*        N/A     73  66  78 W8          N/A
$$

HIZ027>028-070600-
BIG ISLAND OF HAWAII INTERIOR AND SUMMMITS-

CITY           SKY/WX    TMP DP  RH WIND       PRES   REMARKS
BRADSHAW FIELD PTCLDY    52  44  74 W6        30.24R
MK VISITOR CEN   N/A     43   9  24 NW12        N/A
MAUNA KEA*       N/A     34 -31   5 N43         N/A  WCI  18
MAUNA LOA*       N/A     50 -47   1 MISG        N/A
MAUNA LOA 1*   NOT AVBL
PTA KIPUKA*      N/A     66  64  94 VRB1G8      N/A
PTA RANGE 17*    N/A     66  63  88 NW3G12      N/A
PTA WEST*        N/A     68  64  88 NW1G12      N/A
NENE CABIN*      N/A     52  52 100 E1          N/A
AHUMOA*          N/A     50  44  79 NE6G12      N/A
PTA PORTABLE*  NOT AVBL
PUU MALI*        N/A     52  43  71 SW12        N/A
$$

HIC003-070600-
NORTHWEST ISLANDS-

CITY           SKY/WX    TMP DP  RH WIND       PRES   REMARKS
MIDWAY ISLAND  PTCLDY    61  45  55 NE12      30.34R
MIDWAY NOS*      N/A     63 N/A N/A MISG      30.32R
FRENCH FRIGATE NOT AVBL
$$

PHZ110>124-180-070600-
BUOY REPORTS

STATION/POSITION TIME  TEMP    WIND        PRES    WAVE   SWELL
                       AIR SEA DIR/SP/G            HT/PER HT/DIR
                 (UTC) (F)     (DEG/KT/KT) (MB)    (FT/S) (FT/D)
BUOY 51001       0500   68 76  350/ 21/ 27 1018.1R
BUOY 51101       0450   68 76  340/ 21/ 29 1017.4R  10/11   5/320
BUOY 51100       NOT AVBL
BUOY 51002       0450   77 78   60/  8/ 10 1012.9R   7/10   7/ 90
BUOY 51003       0450   76 78   20/  4/  6 1014.7R   5/11   5/320
BUOY 51004       0450   75 77   20/  8/ 10 1012.9R   7/10   7/ 90
BARBERS PT BUOY  NOT AVBL
WAIMEA BAY BUOY  0504      78                N/A     4/11   2/330
KAILUA BAY BUOY  0511      77                N/A     4/10   2/ 50
LANAI BUOY       NOT AVBL
BARBERS PT 2     0503      78                N/A     3/11   2/290
PAUWELA MAUI     0507      77                N/A     5/11   3/350
HILO             NOT AVBL
KANEOHE BAY BUOY 0506      77                N/A     4/10   2/ 40
HANALEI KAUAI    0501      78                N/A     9/11   3/320
KAHULUI HARBOR   0500   77 78   90/  4/  7 1013.3R
HONOLULU HARBOR  0500   75 78  350/  4/  6 1014.6R
KILO NALU        NOT AVBL
HILO HARBOR      0500   76 77  160/  4/  5 1012.5R
MOKUOLOE         0400   72 78  190/  3/  4 1013.7R
NAWILIWILI       0500   71 80  360/ 11/ 15 1014.9R
WHOTS BUOY       NOT AVBL
BUOY 51028       NOT AVBL
$$

......................KEY........................................
  SKY/WX - SKY CONDITIONS/PRESENT WEATHER
  TMP    - TEMPERATURE IN FAHRENHEIT
  DWPT   - DEWPOINT IN FAHRENHEIT
  RH     - RELATIVE HUMIDITY IN PERCENT
  WIND   - DIRECTION AND SPEED /MPH FOR ISLANDS...KTS FOR BUOYS/
  PRES   - MEAN SEA LEVEL PRESSURE IN INCHES OF HG
  VSB    - VISIBILITY IN MILES
  HX     - HEAT INDEX
  WCI    - WIND CHILL INDEX
  VRB    - VARIABLE WIND DIRECTION
  N/A    - NOT AVAILABLE




USA.gov is the U.S. government's official web portal to all federal, state and local government web resources and services.